Location: Wellington
(41.3000°S, 174.7830°E)
Time: 20:42:14
(UTC+12:00)

Cosmos 1933 - Pass Details

Date: 24 January 2019
Orbit: 547 x 564 km, 82.5° (Epoch: 21 April)

Event Time Altitude Azimuth Distance (km) Brightness Sun altitude
Exits shadow 22:59:55 23° 331° (NNW) 1,219 4.8 -19.9°
Maximum altitude 23:02:17 57° 260° (W) 681 3.9 -20.1°
Drops below altitude 10° 23:06:24 10° 181° (S) 1,895 6.8 -20.6°
Sets 23:08:39 0° 176° (S) 2,802 7.7 -20.9°
